User: anonymous   Login
Location: Unspecified
(0.0000°N, 0.0000°E)
Time: 14:54:01
(UTC+00:00)
Language:

COSMOS 2400 - Orbit

View from above orbital plane
View from above orbital plane
View from above satellite
View from above satellite

Ground track
Ground track

The orbit data is extracted from the following two-line orbital elements,

1 27868U 03037A   18267.70154059 -.00000006 +00000-0 -11544-3 0  9995
2 27868 082.4692 299.5025 0023093 110.9911 026.4656 12.45134499686376
Epoch (UTC): 24 September 2018 16:50:13
Eccentricity: 0.0023093
inclination: 82.4692°
perigee height: 1467 km
apogee height: 1503 km
right ascension of ascending node: 299.5025°
argument of perigee: 110.9911°
revolutions per day: 12.45134499
mean anomaly at epoch: 26.4656°
orbit number at epoch: 68637

The dashed part of the orbit path shows where the satellite is in the earth's shadow,  

DLR